Regional Weather Roundup
Issued by NWS Cleveland, OH

Home | Current Version | Previous Version | Graphics & Text | Print | Product List | Glossary On
Versions: 1 2 3 4 5 6 7 8 9 10 11 12 13 14 15 16 17 18 19 20 21 22 23 24 25 26 27 28 29 30 31 32 33 34 35 36 37 38 39 40 41 42 43 44 45 46 47 48 49 50
000
ASUS41 KCLE 300802
RWRCLE
OHIO REGIONAL WEATHER ROUNDUP
NATIONAL WEATHER SERVICE CLEVELAND, OH
400 AM EDT SAT AUG 30 2014

NOTE: "FAIR" INDICATES FEW OR NO CLOUDS BELOW 12,000 FEET WITH NO
SIGNIFICANT WEATHER AND/OR OBSTRUCTIONS TO VISIBILITY.

OHZ001>008-015>018-024>027-034-035-043-044-300900-
   NORTHWEST OHIO

CITY           SKY/WX    TMP DP  RH WIND       PRES   REMARKS
DEFIANCE       PTCLDY    73  64  73 S8        29.98F
FINDLAY        PTCLDY    71  63  75 S10       30.00F
TOLEDO EXPRESS PTCLDY    71  62  73 S6        29.98F
TOLEDO EXEC    PTCLDY    72  61  68 S12       30.00S
LIMA           CLEAR     72  64  76 S10       30.01F
$$

OHZ009>014-019>023-028>033-038-089-300900-
   NORTHEAST OHIO

CITY           SKY/WX    TMP DP  RH WIND       PRES   REMARKS
CLE-HOPKINS    PTCLDY    67  55  65 S9        30.05F
CLE-LAKEFRONT  PTCLDY    71  54  54 S15       30.01F
CUY CO. ARPT   NOT AVBL
LORAIN-ELYRIA  PTCLDY    70  56  61 S12       30.04F
ASHTABULA      CLEAR     63  55  75 SE9       30.08F
AKRON-CANTON   PTCLDY    67  54  63 SE7       30.08F
WOOSTER        PTCLDY    63  56  78 S5        30.07F
MANSFIELD      PTCLDY    70  58  65 S10       30.07F
YOUNGSTOWN     MOCLDY    63  56  78 SE9       30.09F
$$

OHZ042-051>053-060>062-070>072-077>081-300900-
  SOUTHWEST OHIO

CITY           SKY/WX    TMP DP  RH WIND       PRES   REMARKS
CINC-COVINGTON CLEAR     71  67  87 S6        30.04S
CINC-LUNKEN    CLEAR     70  69  97 CALM      30.04S
HAMILTON       MOCLDY    71  70  96 CALM      30.04S
DAYTON         CLEAR     71  67  87 S6        30.04F
WRIGHT-PAT AFB CLEAR     70  67  89 SE2       30.04F
DAYTON GENERAL PTCLDY   N/A N/A N/A S6        30.03F
WILMINGTON     CLEAR     70  66  87 S6        30.05F
$$

OHZ036-037-039>041-045>050-054>059-063>069-073>076-082>088-300900-
  CENTRAL AND SOUTHEAST OHIO

CITY           SKY/WX    TMP DP  RH WIND       PRES   REMARKS
COLUMBUS       PTCLDY    74  60  61 CALM      30.06S
OSU AIRPORT    CLEAR     72  61  68 S6        30.05F
BOLTON FIELD   CLEAR     66  63  89 SE5       30.06S
RICKENBACK AFB CLEAR     71  59  66 CALM      30.05S
NEWARK         PTCLDY    64  62  93 CALM      30.06F
MARION         CLEAR     68  61  78 S7        30.05F
LANCASTER      CLEAR     70  62  76 SE7       30.06F
ZANESVILLE     PTCLDY    66  60  81 CALM      30.07F
NEW PHILLY     CLEAR     60  58  92 CALM      30.08F
$$


USA.gov is the U.S. government's official web portal to all federal, state and local government web resources and services.